Flag for U.S.A. Weather past 2 weeks in Wheaton, Illinois, U.S.A.

Now
69 °F

Fog.


Feels Like: 69 °F
Forecast: 68 / 83 °F
Wind: 3 mph from Southwest

Location: Dupage Airport

Current Time: Aug 31, 2014 at 6:06:06 AM

Latest Report: Aug 31, 2014 at 5:02 AM


Visibility: 5 mi

Pressure: 29.93 "Hg

Humidity: 93%

Dew point: 67 °F

Location of WheatonLocation

Historic Weather in Wheaton — Graph

°F

Wheaton temperature yesterday

Maximum temperature yesterday: 82 °F (at 1:52 PM)
Minimum temperature yesterday: 69 °F (at 11:52 PM)
Average temperature yesterday: 76 °F

Past Weeks' High & Low Weather Summary

 TemperatureHumidityPressure
High88 °F (Aug 24, 2:52 PM)97% (Aug 18, 2:52 AM)30.14 "Hg (Aug 18, 2:52 AM)
Low60 °F (Aug 16, 5:52 AM)42% (Aug 28, 2:52 PM)29.68 "Hg (Aug 19, 3:52 PM)
Average74 °F79%29.94 "Hg
* Reported Aug 16 4:52 AM — Aug 31 4:52 AM, Wheaton, Weather by CustomWeather, © 2014

Note: Actual official high and low records may vary slightly from our data, if they occured in-between our weather recording intervals... More about our weather records

Advertising

Wheaton weather history for previous 24 hours

 ConditionsComfort  
Time TempWeatherWind HumidityBarometerVisibility
4:52 AM
Aug 31
70 °FFog.No wind93%29.91 "Hg6 mi
3:52 AM69 °FFog.3 mph93%29.90 "Hg6 mi
2:52 AM69 °FOvercast.No wind90%29.90 "Hg7 mi
1:52 AM69 °FClear.3 mph90%29.89 "Hg10 mi
12:52 AM69 °FClear.8 mph87%29.90 "Hg10 mi
11:52 PM
Aug 30
69 °FClear.3 mph87%29.90 "Hg10 mi
10:52 PM70 °FClear.No wind87%29.89 "Hg10 mi
9:52 PM72 °FClear.6 mph81%29.89 "Hg10 mi
8:52 PM73 °FClear.5 mph79%29.88 "Hg10 mi
7:52 PM75 °FSunny.6 mph74%29.86 "Hg10 mi
6:52 PM79 °FSunny.10 mph65%29.84 "Hg10 mi
5:52 PM81 °FSunny.12 mph62%29.83 "Hg10 mi
4:52 PM82 °FBroken clouds.13 mph60%29.83 "Hg10 mi
3:52 PM82 °FScattered clouds.16 mph60%29.83 "Hg10 mi
2:52 PM82 °FScattered clouds.18 mph60%29.84 "Hg10 mi
1:52 PM82 °FPartly sunny.16 mph63%29.84 "Hg10 mi
12:52 PM81 °FScattered clouds.20 mph65%29.84 "Hg10 mi
11:52 AM79 °FBroken clouds.23 mph69%29.84 "Hg10 mi
10:52 AM76 °FMostly cloudy.15 mph80%29.84 "Hg10 mi
9:52 AM75 °FMostly cloudy.15 mph79%29.83 "Hg10 mi
8:52 AM74 °FMostly cloudy.14 mph85%29.84 "Hg7 mi
7:59 AM72 °FFog.9 mph91%29.86 "Hg5 mi
6:57 AM71 °FThunderstorms. Partly cloudy.7 mph93%29.85 "Hg9 mi
Weather by CustomWeather, © 2014

See weather overviewHow to use our weather pages